Location: Del Amo
(33.8464°N, 118.2104°W)
Time: 18:09:28
(UTC+00:00)

S-56A Canister/Altair - Pass Details

Date: 18 September 2024
Orbit: 636 x 2487 km, 38.9° (Epoch: 14 October)

Event Time Altitude Azimuth Distance (km) Brightness Sun altitude
Rises 04:12:33 0° 284° (WNW) 3,422 12.1 -28.4°
Reaches altitude 10° 04:14:45 10° 288° (WNW) 2,648 11.2 -28.9°
Maximum altitude 04:21:04 63° 9° (N) 1,351 8.6 -30.1°
Enters shadow 04:22:44 53° 56° (NE) 1,568 8.8 -30.4°
Drops below altitude 10° 04:30:47 10° 90° (E) 3,972 - -31.9°
Sets 04:34:47 0° 93° (E) 5,258 - -32.6°
